[[{"header":{"parameterUnit":"m.s-1","parameterCategory":2,"la1":30.2992,"la2":30.254,"lo1":-89.0895,"lo2":-89.0443,"dy":0.0025,"dx":0.0025,"nx":19,"ny":19,"refTime":"2026-03-23T09:00:00:Z","depth":"0","parameterNumber":2,"parameterNumberName":"U-component_of_CURRENTS"},"data":[0,0,0,0.1553,0.1553,0.1569,0.1569,0.1668,0.1669,0,0,0,0,0,0,0,0,0,0,0,0.155,0.155,0.1553,0.1553,0.1569,0.1569,0.1667,0.1669,0,0,0,0,0,0,0,0,0,0,0,0.155,0.155,0.155,0.1553,0.1569,0.1569,0.1667,0.1639,0,0,0,0,0,0,0,0,0,0,0.1615,0.1606,0.155,0.155,0.1553,0.1569,0.1569,0.1636,0.164,0.168,0,0.1674,0,0.167,0.1676,0.1676,0,0,0,0.1564,0.1602,0.1595,0.155,0.1553,0.1568,0.1565,0.1638,0.1643,0.1686,0.1675,0.1678,0.1672,0.1677,0.1677,0.1776,0.1777,0,0,0.1563,0.1569,0.1592,0.1598,0.1549,0.1564,0.1565,0.164,0.165,0.1676,0.168,0.1673,0.1677,0.1678,0.1776,0.1776,0,0,0,0.1554,0.1568,0.1558,0.1594,0.1589,0.1564,0.1566,0.1647,0.164,0.1681,0.1675,0.1678,0.1679,0.1776,0.1776,0.1767,0,0,0,0.1554,0.1562,0.1558,0.1564,0.1586,0.1609,0.1571,0.1635,0.1643,0.1674,0.1678,0.168,0.1776,0.1776,0.1767,0.1744,0,0,0,0.1551,0.1562,0.1558,0.1563,0.1563,0.1607,0.1605,0.1636,0.1639,0.1676,0.1681,0.1775,0.1776,0.1766,0.1744,0.1728,0,0,0,0.1565,0.1566,0.1558,0.158,0.1563,0.1608,0.1605,0.1649,0.1684,0.1679,0.1776,0.1776,0.1766,0.1744,0.1728,0.1704,0.17,0,0,0.1574,0.1568,0.1585,0.1578,0.1604,0.1607,0.1659,0.1695,0.1705,0.1758,0.176,0.1767,0.1744,0.1728,0.1739,0.1734,0,0,0,0.1595,0.1594,0.1607,0.1623,0.1652,0.166,0.1704,0.1715,0.1742,0.1724,0.1782,0.1768,0.1758,0.1745,0.1741,0.1547,0.1779,0.1779,0.1779,0.1607,0.1622,0.1642,0.1655,0.1686,0.1718,0.1734,0.1755,0.178,0.178,0.1772,0.1768,0.1756,0.1753,0.1553,0.1796,0.1796,0.1796,0.1796,0.1604,0.1612,0.1643,0.1652,0.1678,0.1717,0.1758,0.1761,0.1774,0.1782,0.1773,0.1751,0.1748,0.1536,0.1796,0.1796,0.1796,0.1796,0.1796,0.1597,0.1596,0.16,0.1609,0.1642,0.1683,0.1695,0.172,0.1745,0.1745,0.1721,0.1721,0.1522,0.1736,0.1736,0.1735,0.1735,0.1735,0.1735,0.157,0.1575,0.154,0.1555,0.1581,0.16,0.164,0.1656,0.1674,0.1696,0.1696,0.1494,0.1749,0.1737,0.1733,0.1733,0.1733,0.1734,0.1734,0.1544,0.1499,0.1484,0.1484,0.1519,0.1534,0.1573,0.1587,0.1603,0.1609,0.1411,0.1677,0.167,0.1674,0.166,0.1636,0.1636,0.1636,0.1636,0.1497,0.1478,0.1441,0.1456,0.1477,0.1517,0.1478,0.1452,0.1363,0.127,0.1259,0.1242,0.1255,0.1223,0.1236,0.1213,0.1076,0.1075,0.1074,0.1455,0.147,0.1448,0.1449,0.1487,0.1489,0.141,0.1233,0.107,0.103,0.0985,0.1009,0.0966,0.1002,0.0942,0.0977,0.0937,0,0]},{"header":{"parameterUnit":"m.s-1","parameterCategory":2,"la1":30.2992,"la2":30.254,"lo1":-89.0895,"lo2":-89.0443,"dy":0.0025,"dx":0.0025,"nx":19,"ny":19,"refTime":"2026-03-23T09:00:00:Z","depth":"0","parameterNumber":3,"parameterNumberName":"V-component_of_CURRENTS"},"data":[0,0,0,-0.0572,-0.0573,-0.0603,-0.0603,-0.0578,-0.0578,0,0,0,0,0,0,0,0,0,0,0,-0.056,-0.056,-0.0572,-0.0573,-0.0603,-0.0603,-0.0578,-0.0578,0,0,0,0,0,0,0,0,0,0,0,-0.0559,-0.056,-0.056,-0.0573,-0.0603,-0.0603,-0.0578,-0.057,0,0,0,0,0,0,0,0,0,0,-0.0549,-0.0547,-0.056,-0.056,-0.0574,-0.0603,-0.0603,-0.057,-0.0571,-0.0548,0,-0.0557,0,-0.0568,-0.0575,-0.0575,0,0,0,-0.0568,-0.0547,-0.0557,-0.056,-0.0574,-0.0603,-0.0588,-0.0571,-0.0571,-0.0548,-0.0557,-0.0556,-0.0568,-0.0575,-0.0574,-0.0491,-0.049,0,0,-0.0567,-0.0561,-0.0557,-0.0557,-0.0586,-0.0587,-0.0589,-0.0572,-0.0571,-0.0557,-0.0556,-0.0568,-0.0574,-0.0574,-0.0491,-0.049,0,0,0,-0.0565,-0.056,-0.0571,-0.0558,-0.0569,-0.0588,-0.059,-0.0572,-0.0576,-0.0556,-0.0567,-0.0574,-0.0574,-0.0492,-0.0491,-0.0453,0,0,0,-0.0564,-0.0559,-0.057,-0.0566,-0.057,-0.058,-0.059,-0.0577,-0.0576,-0.0568,-0.0574,-0.0573,-0.0493,-0.0491,-0.0456,-0.0403,0,0,0,-0.0558,-0.0559,-0.0564,-0.0566,-0.0582,-0.058,-0.0584,-0.0578,-0.0583,-0.0575,-0.0573,-0.0493,-0.0492,-0.0458,-0.0408,-0.0293,0,0,0,-0.0547,-0.055,-0.0564,-0.0573,-0.0582,-0.0585,-0.0585,-0.0585,-0.0579,-0.0574,-0.0493,-0.0491,-0.0459,-0.0411,-0.0298,-0.0185,-0.0156,0,0,-0.0542,-0.0549,-0.0555,-0.0569,-0.0563,-0.0581,-0.0556,-0.0551,-0.0543,-0.0495,-0.0493,-0.0455,-0.0409,-0.0294,-0.01,-0.0073,0,0,0,-0.0549,-0.054,-0.0546,-0.0548,-0.0563,-0.0532,-0.0544,-0.0521,-0.0471,-0.0534,-0.0435,-0.0406,-0.0335,-0.0277,-0.0255,-0.0274,-0.0484,-0.0484,-0.0484,-0.0487,-0.0508,-0.0498,-0.0508,-0.051,-0.0496,-0.0456,-0.0417,-0.0445,-0.0403,-0.0363,-0.0228,-0.0168,-0.015,-0.0172,-0.0366,-0.0366,-0.0366,-0.0366,-0.0432,-0.0423,-0.044,-0.0432,-0.0423,-0.0401,-0.0352,-0.0343,-0.0229,-0.0293,-0.0226,-0.0224,-0.0124,-0.0156,-0.0363,-0.0364,-0.0364,-0.0364,-0.0364,-0.0374,-0.0374,-0.0367,-0.0354,-0.0326,-0.0329,-0.0222,-0.0199,-0.0158,-0.0099,0.0008,0.0008,-0.0025,-0.0059,-0.0058,-0.0057,-0.0057,-0.0056,-0.0056,-0.0313,-0.0309,-0.0275,-0.0277,-0.0258,-0.0214,-0.0133,-0.0044,0.0078,0.0105,0.0106,0.0036,-0.0133,-0.0151,-0.0044,-0.0046,-0.0048,-0.0049,-0.005,-0.0265,-0.0255,-0.0191,-0.0163,-0.011,-0.0013,0.0038,0.0242,0.0329,0.0424,0.0331,0.0229,0.0249,0.0232,0.0224,0.0422,0.0422,0.0422,0.0422,-0.0233,-0.0226,-0.0096,-0.0013,0.0055,0.0101,0.0343,0.0482,0.0556,0.0582,0.0511,0.0427,0.0409,0.0431,0.041,0.0402,0.0641,0.0641,0.0641,-0.0208,-0.0155,-0.0046,0.0055,0.0139,0.025,0.0481,0.0668,0.0713,0.0641,0.0467,0.0458,0.0314,0.0287,0.0298,0.0269,0.0247,0,0]}],[{"header":{"parameterUnit":"m.s-1","parameterCategory":2,"la1":30.2992,"la2":30.254,"lo1":-89.0895,"lo2":-89.0443,"dy":0.0025,"dx":0.0025,"nx":19,"ny":19,"refTime":"2026-03-23T09:00:00:Z","depth":"2","parameterNumber":2,"parameterNumberName":"U-component_of_CURRENTS"},"data":[0,0,0,0.0581,0.0582,0.0548,0.0547,0.0527,0.0528,0,0,0,0,0,0,0,0,0,0,0,0.0573,0.0574,0.058,0.0583,0.0548,0.0547,0.0526,0.0528,0,0,0,0,0,0,0,0,0,0,0,0.0572,0.0574,0.0575,0.0583,0.0548,0.0546,0.0526,0.0526,0,0,0,0,0,0,0,0,0,0,0.0549,0.0544,0.0573,0.0575,0.0584,0.0548,0.0546,0.0525,0.0527,0.0576,0,0.0617,0,0.0622,0.0534,0.0535,0,0,0,0.0499,0.0542,0.058,0.0576,0.0584,0.0549,0.054,0.0525,0.0527,0.0578,0.0617,0.0616,0.0622,0.0535,0.0536,0.0722,0.0723,0,0,0.0501,0.0509,0.058,0.0583,0.064,0.0542,0.054,0.0525,0.0528,0.0617,0.0616,0.0622,0.0536,0.0537,0.072,0.0722,0,0,0,0.0563,0.0511,0.0544,0.0584,0.0604,0.0543,0.0541,0.0526,0.0553,0.0616,0.0621,0.0536,0.0538,0.0719,0.0721,0.0778,0,0,0,0.056,0.0554,0.0546,0.0542,0.0606,0.0559,0.0542,0.0551,0.0552,0.0621,0.0536,0.0539,0.0718,0.072,0.0773,0.0775,0,0,0,0.0563,0.0552,0.0578,0.0544,0.0574,0.056,0.0578,0.0549,0.056,0.0535,0.0539,0.0717,0.072,0.0769,0.0769,0.0816,0,0,0,0.0526,0.057,0.0578,0.0604,0.0576,0.0558,0.0577,0.0544,0.0519,0.0537,0.0718,0.0721,0.0768,0.0766,0.0812,0.0705,0.0713,0,0,0.0556,0.0573,0.0581,0.0591,0.0632,0.0553,0.0555,0.0545,0.0594,0.0707,0.071,0.0775,0.0769,0.0815,0.0879,0.0881,0,0,0,0.0571,0.0603,0.0608,0.0636,0.0617,0.0609,0.0569,0.0611,0.0723,0.0617,0.0821,0.0815,0.0842,0.0772,0.0775,0.0735,0.0735,0.0734,0.0734,0.0669,0.0647,0.0668,0.0661,0.0647,0.0641,0.066,0.0731,0.0746,0.0849,0.0896,0.1015,0.0945,0.0945,0.0949,0.0949,0.0949,0.095,0.095,0.0722,0.0707,0.0704,0.0709,0.0715,0.0706,0.079,0.0837,0.0993,0.0995,0.1019,0.0879,0.0951,0.0955,0.0954,0.0953,0.0953,0.0952,0.0952,0.0747,0.0726,0.0737,0.071,0.0749,0.075,0.0856,0.0959,0.1052,0.1111,0.1035,0.1032,0.1012,0.1133,0.1133,0.1133,0.1133,0.1134,0.1134,0.0734,0.0743,0.0733,0.0701,0.0722,0.0748,0.0901,0.0992,0.1062,0.1084,0.1083,0.1076,0.107,0.1024,0.1138,0.1137,0.1136,0.1136,0.1136,0.0692,0.0671,0.0687,0.0701,0.0702,0.0756,0.0865,0.0974,0.1051,0.1058,0.107,0.107,0.1034,0.1029,0.0983,0.108,0.108,0.108,0.108,0.0622,0.0622,0.067,0.0724,0.073,0.0779,0.0813,0.0784,0.0878,0.086,0.087,0.0796,0.0803,0.0749,0.0752,0.0698,0.072,0.072,0.0719,0.055,0.062,0.0643,0.0711,0.079,0.0777,0.0766,0.0594,0.0573,0.0704,0.0794,0.1058,0.0972,0.0975,0.0908,0.0906,0.0825,0,0]},{"header":{"parameterUnit":"m.s-1","parameterCategory":2,"la1":30.2992,"la2":30.254,"lo1":-89.0895,"lo2":-89.0443,"dy":0.0025,"dx":0.0025,"nx":19,"ny":19,"refTime":"2026-03-23T09:00:00:Z","depth":"2","parameterNumber":3,"parameterNumberName":"V-component_of_CURRENTS"},"data":[0,0,0,-0.0377,-0.0379,-0.0386,-0.0386,-0.0291,-0.0291,0,0,0,0,0,0,0,0,0,0,0,-0.0339,-0.034,-0.0377,-0.0379,-0.0386,-0.0386,-0.0291,-0.0291,0,0,0,0,0,0,0,0,0,0,0,-0.0339,-0.0339,-0.034,-0.038,-0.0386,-0.0386,-0.0291,-0.0299,0,0,0,0,0,0,0,0,0,0,-0.03,-0.0321,-0.0339,-0.034,-0.038,-0.0387,-0.0386,-0.03,-0.0299,-0.0275,0,-0.0289,0,-0.0326,-0.0287,-0.0287,0,0,0,-0.0327,-0.0322,-0.0319,-0.034,-0.0381,-0.0387,-0.0368,-0.03,-0.0298,-0.0273,-0.0289,-0.0287,-0.0324,-0.0286,-0.0286,-0.0236,-0.0236,0,0,-0.0326,-0.0339,-0.032,-0.0318,-0.0399,-0.0369,-0.0369,-0.0299,-0.0306,-0.0289,-0.0286,-0.0323,-0.0286,-0.0286,-0.0236,-0.0236,0,0,0,-0.0361,-0.0339,-0.0338,-0.032,-0.0351,-0.037,-0.0371,-0.0308,-0.0307,-0.0285,-0.0321,-0.0286,-0.0285,-0.0236,-0.0236,-0.0251,0,0,0,-0.0358,-0.0363,-0.0338,-0.0345,-0.0354,-0.0354,-0.0381,-0.0309,-0.0305,-0.0322,-0.0286,-0.0284,-0.0237,-0.0236,-0.0251,-0.0201,0,0,0,-0.0336,-0.0362,-0.0366,-0.0346,-0.0377,-0.0356,-0.0349,-0.0309,-0.0329,-0.0287,-0.0284,-0.0237,-0.0236,-0.0251,-0.0202,-0.0088,0,0,0,-0.0341,-0.0349,-0.0366,-0.0379,-0.0378,-0.0345,-0.0349,-0.0327,-0.0291,-0.0285,-0.0237,-0.0236,-0.0251,-0.0203,-0.0091,0.0019,0.004,0,0,-0.0348,-0.0351,-0.0353,-0.0369,-0.0361,-0.0339,-0.0309,-0.0279,-0.0277,-0.0243,-0.0243,-0.0251,-0.0203,-0.0089,0.0034,0.0056,0,0,0,-0.0352,-0.0342,-0.0342,-0.0349,-0.0338,-0.0308,-0.0286,-0.0272,-0.0256,-0.027,-0.0241,-0.0208,-0.0137,-0.0077,-0.006,-0.0235,-0.0235,-0.0235,-0.0235,-0.0334,-0.0332,-0.0315,-0.0301,-0.0294,-0.0277,-0.0236,-0.0212,-0.0232,-0.0237,-0.0217,-0.0128,-0.0069,-0.0054,-0.024,-0.0241,-0.0241,-0.0241,-0.0241,-0.0279,-0.0258,-0.0267,-0.0242,-0.0241,-0.0216,-0.0196,-0.0205,-0.0128,-0.0197,-0.0127,-0.0091,-0.0036,-0.0242,-0.0241,-0.0241,-0.0241,-0.0241,-0.0241,-0.0241,-0.0229,-0.0206,-0.0175,-0.018,-0.0194,-0.0127,-0.0134,-0.0106,-0.0059,0.0066,0.0067,-0.0077,-0.0025,-0.0025,-0.0024,-0.0023,-0.0023,-0.0022,-0.0197,-0.0176,-0.0136,-0.0113,-0.0128,-0.0108,-0.0076,0.0005,0.0103,0.012,0.0122,-0.0052,-0.0059,-0.006,-0.0012,-0.0014,-0.0015,-0.0016,-0.0017,-0.0161,-0.013,-0.0071,-0.0056,-0.0017,0.0053,0.0089,0.0283,0.0365,0.0452,0.0252,0.0242,0.0291,0.0277,0.0286,0.0423,0.0423,0.0423,0.0423,-0.0141,-0.0116,-0.0001,0.0053,0.0107,0.0146,0.0387,0.0502,0.053,0.0505,0.0501,0.0419,0.0401,0.045,0.0432,0.0442,0.0619,0.0619,0.0619,-0.0125,-0.0072,0.0017,0.0131,0.016,0.0305,0.051,0.0608,0.0585,0.0618,0.0448,0.0453,0.0316,0.0294,0.0353,0.0331,0.034,0,0]}],[{"header":{"parameterUnit":"m.s-1","parameterCategory":2,"la1":30.2992,"la2":30.254,"lo1":-89.0895,"lo2":-89.0443,"dy":0.0025,"dx":0.0025,"nx":19,"ny":19,"refTime":"2026-03-23T09:00:00:Z","depth":"4","parameterNumber":2,"parameterNumberName":"U-component_of_CURRENTS"},"data":[0,0,0,-0.0578,-0.0579,-0.058,-0.0579,-0.0574,-0.0574,0,0,0,0,0,0,0,0,0,0,0,-0.0584,-0.0584,-0.0578,-0.0579,-0.058,-0.0579,-0.0574,-0.0574,0,0,0,0,0,0,0,0,0,0,0,-0.0584,-0.0584,-0.0585,-0.0579,-0.058,-0.0579,-0.0574,-0.0572,0,0,0,0,0,0,0,0,0,0,-0.0571,-0.0581,-0.0584,-0.0585,-0.0579,-0.058,-0.0579,-0.0572,-0.0572,-0.0576,0,-0.059,0,-0.0586,-0.0575,-0.0575,0,0,0,-0.0567,-0.0581,-0.0583,-0.0585,-0.0579,-0.058,-0.0576,-0.0572,-0.0572,-0.0576,-0.059,-0.059,-0.0586,-0.0575,-0.0575,-0.0486,-0.0485,0,0,-0.0567,-0.0578,-0.0583,-0.0584,-0.0599,-0.0576,-0.0576,-0.0572,-0.058,-0.059,-0.059,-0.0585,-0.0575,-0.0575,-0.0487,-0.0485,0,0,0,-0.0575,-0.0578,-0.058,-0.0584,-0.0587,-0.0576,-0.0576,-0.0579,-0.0582,-0.059,-0.0585,-0.0575,-0.0575,-0.0488,-0.0486,-0.0424,0,0,0,-0.0574,-0.0584,-0.058,-0.0586,-0.0588,-0.0584,-0.0584,-0.0582,-0.0581,-0.0585,-0.0575,-0.0575,-0.0489,-0.0487,-0.0428,-0.0449,0,0,0,-0.058,-0.0584,-0.059,-0.0587,-0.0592,-0.0584,-0.0585,-0.0581,-0.0579,-0.0575,-0.0575,-0.049,-0.0487,-0.0432,-0.0453,-0.0406,0,0,0,-0.0581,-0.0592,-0.0591,-0.0591,-0.0592,-0.0576,-0.0585,-0.0561,-0.0553,-0.0575,-0.0489,-0.0486,-0.0433,-0.0456,-0.0409,-0.0432,0,0,0,-0.059,-0.0594,-0.0588,-0.0586,-0.0597,-0.0574,-0.0537,-0.0525,-0.0513,-0.0491,-0.0489,-0.0427,-0.0454,-0.0407,-0.0285,0,0,0,0,-0.0585,-0.0584,-0.0583,-0.0591,-0.0585,-0.0555,-0.053,-0.0494,-0.0423,-0.05,-0.0393,-0.0413,-0.0385,-0.0405,-0.0474,-0.0475,-0.0475,-0.0475,-0.0475,-0.06,-0.0595,-0.0599,-0.0587,-0.0571,-0.053,-0.0482,-0.0422,-0.0399,-0.0329,-0.0335,-0.0228,-0.024,-0.0279,-0.0279,-0.0279,-0.0278,-0.0278,-0.0278,-0.0587,-0.0586,-0.059,-0.0582,-0.057,-0.0512,-0.0421,-0.0366,-0.0258,-0.0252,-0.0226,-0.0304,-0.0271,-0.0272,-0.0273,-0.0274,-0.0275,-0.0275,-0.0276,-0.0584,-0.059,-0.0588,-0.0579,-0.0535,-0.0459,-0.0368,-0.0297,-0.0221,-0.0181,-0.0164,-0.0192,-0.0229,-0.0124,-0.0124,-0.0124,-0.0123,-0.0123,-0.0123,-0.0581,-0.0592,-0.0582,-0.055,-0.052,-0.0433,-0.0315,-0.0261,-0.0192,-0.0124,-0.0142,-0.0177,-0.0182,-0.022,-0.0121,-0.0121,-0.0121,-0.0122,-0.0122,-0.0555,-0.0571,-0.0547,-0.0539,-0.0471,-0.0415,-0.0335,-0.0204,-0.0141,-0.009,-0.0092,-0.0095,-0.0131,-0.0137,-0.0176,-0.006,-0.006,-0.006,0,-0.0537,-0.0544,-0.0517,-0.0498,-0.0455,-0.0407,-0.0309,-0.0232,-0.0145,-0.0133,-0.0165,-0.0174,-0.0173,-0.0224,-0.0229,-0.0278,0,0,0,-0.0502,-0.0509,-0.0478,-0.0476,-0.0435,-0.0346,-0.0273,-0.0204,-0.0171,-0.0098,-0.0059,-0.0059,-0.016,-0.0113,-0.0175,-0.0181,-0.0245,0,0]},{"header":{"parameterUnit":"m.s-1","parameterCategory":2,"la1":30.2992,"la2":30.254,"lo1":-89.0895,"lo2":-89.0443,"dy":0.0025,"dx":0.0025,"nx":19,"ny":19,"refTime":"2026-03-23T09:00:00:Z","depth":"4","parameterNumber":3,"parameterNumberName":"V-component_of_CURRENTS"},"data":[0,0,0,0.0441,0.0443,0.0504,0.0504,0.0668,0.067,0,0,0,0,0,0,0,0,0,0,0,0.0419,0.042,0.0441,0.0443,0.0504,0.0504,0.0668,0.067,0,0,0,0,0,0,0,0,0,0,0,0.0419,0.042,0.042,0.0443,0.0504,0.0504,0.0668,0.0599,0,0,0,0,0,0,0,0,0,0,0.0529,0.0485,0.042,0.042,0.0444,0.0504,0.0504,0.0595,0.0604,0.0667,0,0.0678,0,0.0683,0.0683,0.0684,0,0,0,0.044,0.0478,0.0509,0.0421,0.0444,0.0504,0.0475,0.0599,0.0609,0.0679,0.068,0.0685,0.0686,0.0685,0.0686,0.0816,0.0815,0,0,0.0436,0.042,0.0501,0.0515,0.0465,0.0473,0.0477,0.0604,0.0611,0.068,0.0689,0.0689,0.0686,0.0688,0.0816,0.0815,0,0,0,0.0429,0.0418,0.0443,0.0509,0.0516,0.0475,0.048,0.0604,0.0617,0.0691,0.0691,0.0687,0.069,0.0816,0.0816,0.0872,0,0,0,0.0427,0.0414,0.0442,0.0431,0.0513,0.0546,0.0477,0.0608,0.0622,0.069,0.0687,0.0692,0.0816,0.0816,0.087,0.0867,0,0,0,0.0416,0.0412,0.0423,0.043,0.0459,0.0544,0.0562,0.061,0.0624,0.0684,0.0692,0.0816,0.0816,0.0869,0.0865,0.0816,0,0,0,0.0391,0.0401,0.0423,0.043,0.0459,0.055,0.0561,0.0671,0.0736,0.0688,0.0816,0.0816,0.0869,0.0865,0.0816,0.0689,0,0,0,0.0389,0.0401,0.0403,0.0424,0.0478,0.0541,0.0618,0.0727,0.0739,0.078,0.0783,0.0871,0.0865,0.0816,0.0681,0,0,0,0,0.0392,0.04,0.0409,0.0453,0.0527,0.0612,0.073,0.0743,0.0802,0.0772,0.0852,0.0845,0.0813,0.0739,0.0815,0.0815,0.0815,0.0815,0.0815,0.0367,0.0407,0.0445,0.052,0.059,0.0709,0.0752,0.0798,0.0847,0.0869,0.0879,0.0859,0.0785,0.0877,0.0878,0.0878,0.0878,0.0878,0.0878,0.0375,0.0406,0.0491,0.0573,0.0689,0.0801,0.0835,0.0866,0.0865,0.0891,0.0857,0.0789,0.0883,0.0882,0.0882,0.0881,0.0881,0.088,0.088,0.036,0.0392,0.048,0.0628,0.0748,0.0855,0.0841,0.0882,0.0895,0.0891,0.077,0.0861,0.0866,0.088,0.0879,0.0879,0.0879,0.0879,0.0879,0.0328,0.0399,0.0501,0.0643,0.0759,0.0824,0.0856,0.0825,0.0842,0.0782,0.0897,0.0857,0.0858,0.0863,0.0875,0.0876,0.0876,0.0877,0.0877,0.0288,0.031,0.0456,0.0578,0.0733,0.0719,0.0773,0.0697,0.0642,0.0584,0.0696,0.0706,0.0653,0.0657,0.0654,0.0604,0.0603,0.0601,0,0.023,0.0249,0.0418,0.0536,0.0599,0.0628,0.0529,0.0501,0.0519,0.0516,0.0617,0.0745,0.0751,0.0695,0.0696,0.0692,0,0,0,0.0179,0.0253,0.0349,0.0468,0.0544,0.0439,0.0475,0.0451,0.0541,0.0457,0.056,0.0571,0.0724,0.0866,0.0806,0.0806,0.0811,0,0]}]]